EW5349 Weather Reports


Display with metric or nautical units.
time (UTC)temp
F
wind
direction
speed
MPH
gust
MPH
rain 1hr
in
rain 24hr
in
rain mn
in
humidity
%
barometer
mb
20260510021538 78 172 0.0 0.0 0.00 0.04 0.04 82 1007.4
20260510020016 78 128 0.0 0.0 0.00 0.04 0.04 81 1007.2
20260510014530 79 322 0.0 0.0 0.00 0.04 0.04 80 1007.1
20260510013015 79 322 0.0 0.0 0.00 0.04 0.04 79 1006.9
20260510011517 80 321 0.0 0.0 0.00 0.04 0.04 77 1006.6
20260510010115 81 322 0.0 0.0 0.00 0.04 0.04 75 1006.6
20260510004513 82 322 0.0 0.0 0.00 0.04 0.04 73 1006.6
20260510003013 82 103 0.0 0.0 0.00 0.04 0.04 71 1006.4
20260510001512 83 23 0.0 0.0 0.00 0.04 0.04 70 1006.3
20260510000012 83 128 0.0 0.0 0.00 0.04 0.04 67 1006.2
20260509234512 84 123 0.0 1.0 0.00 0.04 0.04 65 1006.1
20260509233011 84 300 0.0 0.0 0.00 0.04 0.04 64 1006.0
20260509231511 85 275 0.0 0.0 0.00 0.04 0.04 60 1006.0
20260509230021 85 241 0.0 0.0 0.00 0.04 0.04 58 1006.1
20260509224509 86 114 0.0 0.0 0.00 0.04 0.04 59 1006.0
20260509223008 87 276 0.0 0.0 0.00 0.04 0.04 50 1006.0
20260509221507 87 143 0.0 0.0 0.00 0.04 0.04 55 1005.8
20260509220007 87 141 0.0 0.0 0.00 0.04 0.04 53 1005.6
20260509214505 85 136 0.0 0.0 0.00 0.04 0.04 56 1005.8
20260509213003 83 262 0.0 0.0 0.00 0.04 0.04 58 1006.0
20260509211605 80 147 0.0 0.0 0.00 0.04 0.04 60 1006.4
20260509210059 76 105 0.0 4.0 0.00 0.04 0.04 61 1006.9
20260509204556 77 82 0.0 6.0 0.00 0.04 0.04 64 1006.7
20260509203100 81 81 0.0 7.0 0.00 0.04 0.04 54 1006.9
20260509201558 91 72 0.0 0.0 0.00 0.04 0.04 53 1007.1
20260509200055 90 83 0.0 0.0 0.00 0.04 0.04 54 1006.8
20260509194558 93 137 0.0 0.0 0.00 0.04 0.04 51 1006.9
20260509193049 93 120 0.0 2.0 0.00 0.04 0.04 52 1007.0
20260509191557 93 262 0.0 1.0 0.00 0.04 0.04 52 1007.2
20260509190046 92 143 0.0 1.0 0.00 0.04 0.04 56 1007.4
20260509184540 91 240 0.0 0.0 0.00 0.04 0.04 60 1007.7
20260509183037 90 76 0.0 0.0 0.00 0.04 0.04 64 1008.1
20260509181536 90 231 0.0 0.0 0.00 0.04 0.04 64 1008.3
20260509180037 89 132 0.0 0.0 0.00 0.04 0.04 69 1008.3
20260509174526 87 63 0.0 1.0 0.00 0.04 0.04 69 1008.7
20260509173031 86 85 0.0 0.0 0.00 0.04 0.04 73 1008.9
20260509171524 85 84 0.0 0.0 0.00 0.04 0.04 79 1009.0
20260509170020 83 300 0.0 0.0 0.00 0.04 0.04 77 1009.1
20260509164515 82 151 0.0 0.0 0.00 0.04 0.04 79 1009.2
20260509163012 82 147 0.0 0.0 0.00 0.04 0.04 82 1009.2
20260509161510 82 114 0.0 0.0 0.00 0.04 0.04 82 1009.1
20260509160007 81 91 0.0 0.0 0.00 0.04 0.04 83 1009.1
20260509154504 79 146 0.0 0.0 0.00 0.04 0.04 92 1009.0
20260509153105 77 228 0.0 1.0 0.00 0.04 0.04 96 1009.3
20260509151556 75 135 0.0 0.0 0.00 0.04 0.04 98 1009.3
20260509150054 74 110 0.0 1.0 0.00 0.04 0.04 98 1009.4
20260509144554 74 310 0.0 0.0 0.00 0.04 0.04 98 1009.1
20260509143051 73 345 0.0 0.0 0.00 0.04 0.04 98 1009.0
20260509141549 72 344 0.0 0.0 0.00 0.04 0.04 98 1008.8
20260509134551 72 344 0.0 0.0 0.00 0.04 0.04 97 1009.2
20260509133048 72 344 0.0 0.0 0.00 0.04 0.04 97 1009.2
20260509131547 72 344 0.0 0.0 0.00 0.04 0.04 97 1009.1
20260509130047 72 344 0.0 0.0 0.00 0.04 0.04 98 1008.9
20260509124551 72 344 0.0 0.0 0.00 0.04 0.04 97 1008.5
20260509123045 72 344 0.0 0.0 0.00 0.04 0.04 97 1008.5
20260509121544 72 344 0.0 0.0 0.00 0.04 0.04 97 1008.8
20260509120045 72 344 0.0 0.0 0.01 0.04 0.04 97 1008.9
20260509114543 72 302 0.0 0.0 0.01 0.04 0.04 97 1009.0
20260509113043 72 302 0.0 0.0 0.01 0.04 0.04 97 1009.3
20260509111542 72 302 0.0 0.0 0.01 0.04 0.04 97 1009.5
20260509110041 72 302 0.0 0.0 0.00 0.03 0.03 97 1009.8
20260509104541 72 302 0.0 0.0 0.00 0.03 0.03 97 1009.8
20260509103046 72 301 0.0 0.0 0.00 0.03 0.03 97 1009.6
20260509101536 72 301 0.0 0.0 0.01 0.03 0.03 97 1009.0
20260509100034 72 302 0.0 0.0 0.01 0.03 0.03 96 1008.7
20260509094534 72 302 0.0 0.0 0.02 0.03 0.03 96 1008.4
20260509093033 72 302 0.0 0.0 0.03 0.03 0.03 96 1008.6
20260509091545 72 301 0.0 0.0 0.02 0.02 0.02 96 1008.3
20260509090038 72 302 0.0 0.0 0.02 0.02 0.02 96 1008.4
20260509084533 72 302 0.0 0.0 0.01 0.01 0.01 96 1008.6
20260509083031 72 302 0.0 0.0 0.00 0.00 0.00 95 1008.6
20260509081531 72 301 0.0 0.0 0.00 0.00 0.00 95 1008.8
20260509080029 72 302 0.0 0.0 0.00 0.00 0.00 95 1008.6
20260509074529 72 263 0.0 0.0 0.00 0.00 0.00 95 1008.4
20260509073035 72 263 0.0 0.0 0.00 0.00 0.00 95 1008.6
20260509071527 72 263 0.0 0.0 0.00 0.00 0.00 95 1008.7
20260509070027 72 263 0.0 0.0 0.00 0.00 0.00 94 1008.9
20260509064525 72 162 0.0 0.0 0.00 0.00 0.00 94 1008.5
20260509063030 72 143 0.0 0.0 0.00 0.00 0.00 94 1008.4
20260509061524 72 121 0.0 0.0 0.00 0.00 0.00 94 1008.5
20260509060027 73 120 0.0 1.0 0.00 0.00 0.00 93 1008.5
20260509054522 73 133 0.0 2.0 0.00 0.00 0.00 93 1008.3
20260509053032 73 167 0.0 0.0 0.00 0.00 0.00 93 1008.5
20260509051520 73 169 0.0 0.0 0.00 0.00 0.00 93 1008.3
20260509050019 72 233 0.0 0.0 0.00 0.00 0.00 93 1008.2
20260509044517 73 336 0.0 0.0 0.00 0.00 0.00 92 1008.0
20260509043035 73 80 0.0 0.0 0.00 0.00 0.00 91 1008.1
20260509041517 73 264 0.0 0.0 0.00 0.00 0.00 91 1008.3
20260509040014 73 281 0.0 0.0 0.00 0.00 0.00 91 1008.5
20260509034514 73 285 0.0 0.0 0.00 0.00 0.00 91 1008.6
20260509033014 73 285 0.0 0.0 0.00 0.00 0.00 91 1008.5
20260509031513 73 290 0.0 0.0 0.00 0.00 0.00 90 1008.2
20260509030013 73 184 0.0 0.0 0.00 0.00 0.00 90 1008.1
20260509024512 73 184 0.0 0.0 0.00 0.00 0.00 89 1008.1
20260509023012 73 184 0.0 0.0 0.00 0.00 0.00 88 1008.1